Dewpoint
29 24 22 18 24 21 20 21 20 16 20 20 19 19 16 17 13 22 22 23 25 21 16 15 14 11 10 9 3 13 15 15 14 14 14 16 15 15 15 16 17 16 14 20 19 19 21 21 21 21 19 19 18 20 18 17 17 18 16 16 15 17 17 17 19 16 17 19 20 19 16 16 14 14 12 13 17 20 19 20 20 21 21 22 21 21
25 21 24 23 17 17 18 21 21 23 17 18 18 17 10 17 8 19 20 22 23 18 6 4 10 9 6 3 1 1 15 14 14 14 14 15 15 15 17 17 18 16 20 19 20 22 21 20 22 23 21 21 17 17 17 18 17 17 17 15 14 15 15 15 15 17 16 19 19 19 19 17 16 16 15 15 13 15 15 19 21 22 21 22 22 20
19 20 20 15 17 19 20 20 20 20 22 15 12 7 4 -5 10 8 21 21 18 19 9 4 5 8 7 3 -1 -1 11 15 15 15 15 14 15 15 15 17 17 17 17 20 21 23 21 23 23 21 21 19 18 17 16 17 17 17 18 17 16 16 16 15 16 17 17 16 19 17 16 15 16 16 16 15 18 17 18 17 20 21 21 21 21 21
15 20 11 14 18 17 14 16 17 20 19 9 -0 -7 -6 8 6 -15 18 22 17 15 8 10 8 3 3 2 2 0 9 15 17 16 17 18 15 15 15 16 17 17 18 20 18 16 17 20 22 21 21 19 20 17 17 15 17 17 18 18 19 19 17 19 19 18 19 18 17 19 19 19 17 16 17 15 14 15 14 16 17 18 20 21 20 20
19 17 15 18 20 17 17 14 16 13 7 9 8 1 -11 5 2 5 -3 9 14 21 21 17 12 7 7 5 2 2 5 14 17 16 17 18 20 17 19 18 17 17 19 19 15 15 16 18 21 22 22 21 20 21 19 18 16 17 20 21 21 20 19 20 19 19 21 21 21 20 21 21 21 20 18 16 15 15 16 17 17 16 17 19 19 19
15 13 17 19 19 17 17 15 11 12 -1 -2 7 9 1 2 3 3 4 6 -1 -3 20 18 -9 -22 -3 -7 -7 8 14 14 15 18 18 19 19 20 18 18 18 19 19 19 17 16 16 17 20 22 23 23 22 21 22 20 19 18 19 20 21 22 22 21 21 21 20 20 19 19 19 18 18 17 17 15 15 16 14 14 14 15 14 16 17 19
13 10 17 19 17 17 17 13 16 7 -0 -6 5 10 10 2 5 8 8 8 -1 -7 16 16 -9 -7 -17 -14 -13 14 13 10 13 17 17 18 18 19 21 19 19 19 20 21 20 19 18 20 20 21 23 23 23 19 20 20 21 21 20 21 21 22 21 21 22 23 21 20 18 17 18 19 18 17 18 16 16 17 16 19 17 18 17 17 14 15
13 11 8 12 12 14 10 2 9 5 7 1 11 14 11 8 9 12 13 7 -6 6 12 17 5 -3 -3 -7 -5 8 9 8 10 15 16 16 17 17 18 19 19 19 19 21 21 21 22 22 22 23 24 23 22 21 22 19 21 21 20 22 22 22 21 22 22 22 23 21 20 21 19 18 19 17 17 17 16 17 17 17 17 18 18 18 16 14
14 10 8 10 11 2 -10 7 10 12 -2 10 10 14 13 16 15 15 10 -1 -1 3 -1 5 13 -0 -1 -7 4 8 -1 2 5 8 14 15 16 17 19 20 21 20 20 20 23 21 22 22 23 23 23 22 22 23 22 20 20 20 21 23 23 23 23 23 24 23 23 22 22 21 20 19 20 19 19 19 20 19 19 17 17 16 16 16 16 15
17 17 10 14 4 -13 13 10 12 15 9 15 17 20 19 20 19 18 7 1 3 1 1 -8 5 -3 -14 -20 -15 -1 -4 -7 -7 -2 4 11 14 16 19 20 20 21 21 21 24 24 24 23 23 23 22 22 23 24 23 22 22 22 23 24 24 24 24 24 24 24 24 24 22 21 21 21 21 20 19 19 18 17 17 16 17 16 16 15 15 14
21 26 25 16 3 11 11 14 19 11 12 20 19 15 15 14 9 7 2 4 6 1 6 8 3 -10 -15 -15 -24 -7 -1 -13 -15 -12 -8 3 8 13 18 19 22 21 24 26 25 24 24 23 23 23 24 24 24 24 24 24 23 23 25 25 25 25 25 25 25 24 24 24 22 20 20 20 20 20 19 17 16 16 16 15 16 16 16 16 15 15
19 25 23 22 19 16 12 14 18 16 16 18 10 -1 -12 -12 -5 -8 1 -4 -1 -8 -3 -2 -1 4 -12 -21 -23 -17 -6 -4 -12 -9 -3 10 14 18 20 22 23 24 26 26 25 25 24 24 23 24 25 25 25 25 25 25 26 26 26 25 24 23 23 23 22 22 22 22 21 20 19 18 17 17 16 15 15 15 14 14 14 14 14 14 13 13
13 14 17 21 24 16 11 6 12 17 16 12 2 -6 -9 -9 -12 -12 -9 -4 -5 -6 -5 -8 -3 -15 -13 -16 -13 -12 -12 -3 5 1 -6 2 8 15 21 23 24 25 26 26 26 26 26 26 25 25 25 25 25 25 25 25 26 25 23 21 19 18 17 15 15 15 14 14 15 13 11 11 13 14 13 13 13 13 13 13 13 12 12 12 11 12
-5 18 14 18 17 19 14 -16 -5 -0 6 3 -9 5 -10 -13 -9 -7 -15 -9 -4 -11 -12 -15 -3 -20 -21 -20 -14 -18 -13 -7 0 8 7 1 9 16 21 24 24 26 26 26 27 27 27 27 27 26 25 25 25 24 23 23 21 20 19 17 15 12 11 10 10 9 7 7 7 5 5 4 3 4 5 7 8 8 10 11 11 11 11 11 11 11
-12 -3 2 8 -10 19 12 -2 0 -3 -4 -7 2 -16 -7 -4 -5 -8 -10 -9 -1 -7 -15 -13 -3 -2 -9 -12 -5 -12 6 0 -4 8 12 10 14 20 22 24 24 25 27 28 28 28 27 27 26 26 25 24 23 22 21 19 18 16 14 12 11 9 8 7 6 5 4 0 4 3 2 -1 -2 -1 0 -0 0 2 5 6 7 8 9 11 11 11
-6 -13 14 19 15 13 11 11 12 8 -11 -6 -3 -9 -8 -6 -4 -10 0 1 2 -5 -8 0 -1 -3 -12 -5 -2 12 -1 1 3 7 11 14 16 20 21 24 25 26 26 27 27 27 26 26 26 25 24 22 21 20 19 16 15 12 9 8 7 6 6 6 5 0 -1 -1 -1 -1 -3 -3 -1 -0 -1 -1 -0 1 2 3 4 4 5 7 10 11
-6 -26 15 19 19 8 11 11 15 11 2 -8 -13 -6 -8 -8 -15 -5 -4 -10 -2 -0 -2 3 -10 -9 -9 -9 -9 -3 -0 0 4 5 6 10 13 19 21 24 25 26 27 27 26 26 25 25 25 24 22 20 19 17 16 14 12 8 8 7 5 3 4 1 2 -1 -2 -2 -3 -2 -2 -2 -2 -1 -1 -1 1 2 3 5 6 6 8 9 11 11
-0 -15 12 12 6 17 19 17 18 16 14 -7 -6 -10 8 5 3 5 -8 -0 -0 -3 -4 -5 -1 1 -7 -8 -0 -4 1 3 3 3 5 9 11 17 21 24 27 27 26 26 25 25 24 25 23 22 20 18 17 14 12 10 9 8 4 5 2 2 1 -0 -1 -1 -2 -2 -2 -2 -2 -2 -1 -1 -1 0 1 8 4 4 6 7 9 11 12 12
3 -6 4 10 13 18 20 18 14 17 16 -2 -6 11 -2 -2 -1 -9 -0 -4 -5 -4 -8 -7 -7 4 1 4 9 -5 5 3 7 7 10 11 14 19 21 25 26 26 25 25 23 24 24 23 21 20 18 16 14 12 11 9 7 5 4 3 2 1 1 -0 0 -1 -1 -1 2 1 -1 -1 -0 0 1 2 4 2 2 2 4 4 7 6 8 8
-1 -1 -9 9 8 11 10 11 3 7 13 13 7 1 6 -6 0 -4 -1 5 -3 -6 -3 -1 8 -4 -2 11 14 3 9 3 11 15 15 17 18 21 24 26 26 25 25 24 23 23 23 22 20 18 16 14 13 10 8 7 4 2 3 4 2 2 1 0 -0 1 -1 -1 -0 -0 -0 -0 1 2 5 1 2 2 3 4 5 4 4 5 7 12
13 -21 -10 9 14 6 0 8 -1 2 10 6 5 7 6 8 0 3 5 2 -5 -6 -7 -6 -5 -2 -8 -6 -4 8 12 12 13 17 16 18 21 22 24 26 26 24 23 23 22 21 21 20 18 17 15 14 11 8 5 3 2 2 3 3 3 2 1 1 0 -0 -1 0 0 1 0 1 4 3 3 4 3 3 6 4 5 4 5 10 9 11
11 -12 -8 -11 3 1 -8 11 8 5 4 4 7 9 7 7 -0 -2 -3 13 7 -2 -3 -6 -5 -1 -5 0 -2 -5 -3 16 17 19 20 22 20 20 21 21 21 21 21 21 21 20 20 18 16 15 13 11 7 6 3 2 1 1 3 3 3 1 2 1 2 1 1 1 0 1 1 0 1 1 2 2 5 4 6 6 7 7 11 11 10 10
15 -3 -9 -1 -12 -12 -1 10 10 9 9 9 4 0 2 13 6 -2 -4 3 3 4 11 5 -1 -2 9 17 -3 -3 2 8 16 20 19 17 16 17 18 20 20 20 19 20 20 19 19 17 15 13 10 8 6 5 3 2 2 1 1 2 3 3 2 2 2 2 2 2 2 2 1 2 -1 -1 1 2 2 5 6 7 9 13 12 11 11 10
18 4 -0 -2 -3 4 2 7 8 7 11 6 4 4 4 8 12 4 -0 6 2 7 1 -3 -2 1 12 14 11 6 8 13 11 5 9 10 14 12 14 16 16 17 18 19 18 18 17 15 13 11 9 7 7 5 3 3 2 1 1 -1 2 3 2 3 2 3 3 2 2 1 -1 -2 -2 -2 -2 -2 0 3 5 8 11 11 12 11 11 11
2 -2 -8 -2 0 -2 -8 -5 2 5 6 -4 0 0 4 11 20 18 11 9 -1 4 2 -5 -7 -3 15 14 15 8 1 2 4 3 5 4 8 11 10 13 14 16 16 16 17 16 15 13 11 10 9 8 7 5 4 4 2 2 2 -0 -1 2 4 3 3 3 3 2 1 0 -2 -2 -2 -2 -3 -2 0 2 5 7 8 10 10 10 9 8
6 3 -3 -4 -2 -2 0 -1 -2 4 6 -2 -0 -0 3 19 21 8 1 3 0 3 3 -1 -3 5 9 14 6 4 3 3 2 2 2 6 3 6 9 11 12 13 14 15 15 14 13 12 11 10 9 8 6 5 4 3 3 3 2 0 -2 -2 4 3 3 2 1 1 0 1 2 1 3 -1 -4 -2 -0 4 5 6 6 7 7 7 3 3
12 8 1 -1 3 -2 4 5 -1 1 -8 5 11 13 16 14 20 14 5 -2 -1 6 3 8 8 7 5 2 5 4 4 3 0 2 3 3 3 6 8 10 12 12 13 14 15 14 13 12 11 10 9 8 7 6 4 4 3 2 1 -0 -3 -3 1 4 3 3 1 0 -0 4 -1 1 -3 -4 -3 1 3 4 4 4 4 3 0 -2 0 -1
13 9 8 5 1 -3 -2 -1 1 3 -5 -5 5 18 18 16 19 16 6 2 10 3 -1 10 11 15 8 5 4 4 4 2 2 1 1 2 3 5 6 10 17 11 12 13 14 14 12 12 11 10 9 8 7 6 5 4 3 2 1 -1 -3 -2 1 2 5 4 5 3 2 4 1 -2 -3 0 1 2 3 3 2 1 -0 -4 -5 -2 -5 -3
13 9 19 19 16 13 5 1 1 0 -2 -3 -1 -0 12 16 17 17 14 9 9 3 -0 1 3 10 4 1 2 2 1 1 1 1 2 3 1 4 6 7 9 10 11 13 14 14 13 12 11 10 9 8 8 6 5 4 2 2 0 -1 -3 4 7 3 6 5 4 4 1 -1 -2 -2 3 4 3 3 2 1 -1 -2 -6 -4 -6 -5 -6 -1
14 9 17 17 12 5 3 2 2 -0 -1 2 8 2 2 4 16 17 12 7 6 9 3 1 1 1 1 1 2 4 5 6 5 6 4 2 1 3 2 4 7 9 11 12 13 14 13 12 11 11 9 8 8 7 5 4 2 2 1 -1 -1 -1 1 4 5 5 5 3 3 1 4 2 4 3 2 1 1 -2 -4 -6 -5 -3 1 -4 -3 0
14 8 22 20 14 15 12 12 14 6 6 5 4 4 4 5 5 11 12 6 6 5 3 4 4 7 6 7 8 9 8 9 8 6 6 5 5 5 3 3 5 9 11 12 14 14 14 13 12 10 10 9 8 8 6 4 2 1 0 -0 1 0 0 2 4 5 3 4 5 5 4 3 3 2 -0 0 -4 -0 -3 -3 -0 0 -1 -3 -2 -2
15 11 14 9 6 7 4 2 3 2 2 4 2 3 2 2 10 7 12 12 12 13 12 11 12 11 10 10 10 8 7 6 5 5 5 4 4 5 6 5 6 7 9 12 14 15 14 14 12 11 10 9 9 8 6 4 2 1 1 -0 3 1 1 4 5 5 5 6 6 4 3 2 1 0 -2 -1 0 -0 -0 -1 -1 -2 -1 -2 -3 -3
15 12 10 9 6 8 3 2 3 3 3 10 13 10 9 7 5 7 8 9 10 10 15 13 13 11 10 10 5 4 3 2 4 3 4 4 4 5 6 8 8 8 9 10 13 16 15 14 13 11 10 9 9 9 7 4 2 2 2 1 3 1 3 5 5 6 6 5 3 3 2 1 0 -0 0 0 -2 -0 -0 -1 -2 -1 -2 -2 -2 -2
21 17 11 8 6 7 3 5 5 4 4 3 1 12 10 1 4 6 6 7 9 8 10 10 9 6 4 4 3 3 4 4 4 5 7 4 4 5 5 8 9 11 12 12 15 17 16 14 13 12 11 10 9 9 6 4 3 2 3 1 2 3 6 5 4 5 4 3 2 1 1 -0 0 -1 0 -2 -2 -1 -1 -2 -2 -2 -2 -2 -2 -2
18 16 12 14 8 7 11 10 8 6 6 10 4 2 2 3 4 2 5 4 5 4 8 8 7 6 5 5 4 4 4 5 4 4 5 5 6 4 6 6 10 12 12 15 16 17 16 15 14 12 10 10 9 8 6 4 3 3 3 3 4 6 5 5 4 3 2 1 1 0 1 -1 -1 -1 -2 -1 -1 -1 -1 -2 -1 -2 -1 -2 -3 -2
17 14 12 10 9 9 9 8 5 4 7 11 6 3 6 3 4 3 3 7 9 5 5 3 3 4 4 4 4 5 5 6 6 7 6 6 6 6 8 7 8 11 14 16 16 16 16 14 14 11 10 10 9 7 5 3 5 3 5 5 6 6 5 4 2 1 0 -0 0 -1 0 -1 -0 -0 -0 -2 -1 -2 -2 -2 -2 -2 -2 -3 -4 -3
18 16 13 10 14 8 8 7 7 6 5 7 4 0 1 -1 1 3 7 7 7 7 6 4 4 4 6 7 7 6 7 7 5 5 7 8 8 8 8 9 8 9 12 15 16 16 16 15 12 11 10 10 8 6 5 4 5 6 7 6 5 4 3 1 0 -0 0 -0 -1 -1 -1 -1 -1 -1 -1 -2 -2 -2 -3 -2 -2 -3 -3 -3 -3 -3
14 15 12 13 12 12 8 7 8 7 7 5 2 7 3 3 5 8 8 10 7 9 9 9 10 8 8 9 8 7 10 7 7 8 8 7 8 11 9 9 8 11 13 14 15 15 15 13 12 11 9 8 6 5 5 5 6 7 6 4 3 2 0 -1 -1 -1 -1 -1 -0 -1 -0 -1 -0 -1 -0 -1 -1 -2 -2 -2 -2 -3 -3 -3 -4 -4
17 14 15 13 12 10 9 8 7 6 7 2 4 5 9 4 10 9 8 8 9 11 12 12 11 12 11 9 9 9 8 9 9 11 10 9 10 10 9 10 11 13 13 13 14 13 12 11 10 10 9 7 6 5 5 6 6 5 4 2 1 -0 -0 -0 0 -1 -1 -2 -1 -1 -1 -1 -1 -1 -1 -1 -1 -1 -1 -2 -2 -2 -3 -4 -4 -4
17 15 14 13 13 13 11 8 7 10 9 11 12 7 5 5 11 7 5 6 11 12 13 14 12 10 12 10 11 12 11 8 9 9 10 11 12 12 12 12 12 12 12 12 13 12 11 10 10 11 9 8 8 7 6 6 5 4 3 2 2 1 1 1 -0 -2 -1 -0 -0 -1 -1 -1 -1 -1 -1 -1 -1 -1 -2 -2 -3 -3 -4 -5 -5 -6
18 18 16 13 13 13 14 11 11 11 12 10 11 7 7 9 8 7 5 10 13 14 14 14 13 13 11 10 12 12 14 12 11 10 10 10 11 11 12 11 11 12 11 11 11 14 10 9 11 11 9 10 7 7 6 6 5 3 3 3 2 1 2 1 1 -1 -1 -0 -1 -1 -2 -1 -1 -1 -2 -2 -2 -2 -3 -4 -4 -5 -5 -5 -5 -6
18 16 15 16 14 13 13 12 11 13 13 9 10 9 9 12 8 8 12 15 16 15 15 14 13 12 12 12 12 11 12 12 13 11 9 9 10 10 10 10 10 10 11 12 12 10 9 11 11 9 7 8 8 7 6 5 4 4 3 3 2 3 3 1 1 0 -0 -0 -1 -2 -1 -2 -1 -2 -2 -2 -2 -4 -5 -5 -5 -5 -5 -7 -7 -6
16 15 11 13 16 14 11 11 10 7 15 15 17 14 14 14 13 16 17 18 18 16 15 14 13 13 14 14 14 14 13 12 12 12 12 9 10 10 10 9 9 9 8 9 9 9 11 10 9 8 8 7 6 6 5 5 4 4 4 3 3 2 2 1 -0 -1 -2 -2 -2 -1 -1 -1 -2 -3 -3 -3 -4 -5 -5 -6 -6 -5 -5 -6 -7 -8
22 13 10 12 15 8 8 10 9 12 13 17 17 15 16 18 19 20 19 17 18 18 17 16 15 16 16 16 15 15 15 15 14 13 13 11 10 10 10 9 10 10 8 9 9 9 11 9 8 7 7 6 6 6 5 5 5 4 4 3 3 2 1 1 -1 -2 -2 -1 -2 -2 -2 -2 -2 -2 -3 -5 -6 -6 -6 -6 -7 -7 -7 -7 -8 -9
15 15 15 11 15 15 12 14 15 16 18 19 19 18 20 20 19 20 19 19 19 19 20 19 18 19 19 20 19 18 17 17 16 16 15 14 12 12 11 10 10 10 9 9 8 8 10 10 8 7 6 4 5 5 6 6 5 4 3 3 3 2 1 -0 -1 -2 -1 -2 -2 -2 -2 -2 -3 -4 -4 -5 -6 -7 -8 -7 -7 -8 -8 -8 -8 -9
15 17 16 15 16 16 15 16 18 18 19 19 19 19 18 18 19 19 18 19 20 20 21 20 20 21 21 21 20 19 19 19 19 18 18 17 15 14 12 12 11 11 10 10 9 9 9 9 8 7 6 4 4 4 5 5 5 3 3 3 2 2 0 0 -1 -1 -2 -2 -2 -2 -3 -4 -4 -4 -5 -5 -6 -7 -7 -8 -9 -9 -9 -9 -10 -10
16 18 17 16 16 14 12 14 16 17 17 17 17 18 18 18 18 18 18 19 19 20 20 21 21 21 20 20 20 20 20 19 19 19 20 19 17 15 14 14 13 12 11 10 9 9 9 9 8 7 7 5 4 5 4 4 4 4 3 2 2 1 0 -0 -1 -3 -3 -2 -3 -3 -3 -4 -6 -7 -6 -6 -7 -7 -8 -9 -9 -9 -10 -11 -11 -11
15 19 16 15 15 13 12 15 16 17 17 18 17 16 17 17 17 18 19 19 20 21 21 20 20 20 20 19 19 19 19 19 19 20 20 21 21 19 17 16 15 13 12 11 9 9 9 9 8 8 7 6 5 5 4 4 3 3 3 2 1 1 -0 -2 -3 -3 -3 -4 -4 -5 -5 -5 -7 -8 -8 -7 -7 -7 -8 -8 -9 -11 -11 -11 -11 -12
19 21 14 16 14 14 13 13 15 17 15 14 16 17 17 17 17 18 18 18 19 19 19 19 19 19 19 19 19 19 19 19 19 20 21 22 21 20 19 17 16 14 12 10 10 9 9 9 9 8 7 7 6 5 4 4 3 3 2 2 1 0 -2 -3 -4 -4 -4 -4 -4 -5 -7 -7 -7 -7 -8 -8 -8 -8 -8 -9 -9 -10 -10 -8 -10 -11
17 14 17 14 11 10 11 13 17 14 13 15 17 17 17 17 17 17 17 17 18 18 18 18 18 18 18 18 18 18 18 19 20 21 21 22 22 20 19 17 16 14 12 11 10 9 9 9 9 8 7 7 6 5 4 3 3 3 2 2 1 -1 -3 -4 -5 -5 -5 -5 -5 -5 -6 -8 -8 -8 -7 -8 -9 -9 -8 -7 -5 -7 -10 -11 -6 -5
17 19 18 13 13 12 15 17 19 19 18 17 17 16 16 17 16 16 16 16 17 17 18 18 17 18 17 18 17 18 18 19 19 21 21 21 21 19 19 17 16 14 12 10 9 9 9 8 8 8 7 6 5 4 3 3 3 2 2 1 0 -1 -3 -4 -6 -7 -6 -6 -6 -7 -7 -8 -8 -8 -8 -8 -8 -9 -9 -10 -9 3 6 1 -1 -3